Regional Weather Roundup
Issued by NWS Upton, NY

Current Version | Previous Version | Text Only | Print | Product List | Glossary Off
Versions: 1 2 3 4 5 6 7 8 9 10 11 12 13 14 15 16 17 18 19 20 21 22 23 24 25 26 27 28 29 30 31 32 33 34 35 36 37 38 39 40 41 42 43 44 45 46 47 48 49 50
000 ASUS41 KOKX 052108 RWROKX REGIONAL WEATHER ROUNDUP NATIONAL WEATHER SERVICE NEW YORK NY 400 PM EST MON DEC 05 2016 NOTE: "FAIR" INDICATES FEW OR NO CLOUDS BELOW 12,000 FEET WITH NO SIGNIFICANT WEATHER AND/OR OBSTRUCTIONS TO VISIBILITY. NYZ071-072-176-178-NJZ106-104-052200- NEW YORK CITY METRO AREA CITY SKY/WX TMP DP RH WIND PRES REMARKS Central Park PTCLDY 48 32 53 W8 30.01R Wall St Helipt PTCLDY 52 36 54 W8 30.01R Bronx Bot Gard N/A 48 32 53 W20 29.99S LaGuardia APRT PTCLDY 50 33 52 NW14 29.99R Kennedy INTL MOCLDY 49 31 49 NW14 30.00R Breezy Point N/A 46 N/A N/A W12G17 N/A Newark/Liberty MOCLDY 48 33 56 W9 30.00R Teterboro MOCLDY 49 32 52 W9 29.98R $$ NYZ177-179-078>081-052200- LONG ISLAND NEW YORK CITY SKY/WX TMP DP RH WIND PRES REMARKS Jones Beach N/A 46 N/A N/A NW15 N/A Matinecock PT NOT AVBL Farmingdale CLEAR 48 31 51 NW8 29.98R MacArthur/ISP PTCLDY 47 32 56 NW10 29.97R Shirley CLEAR 46 34 62 NW10 29.98R Westhampton CLEAR 46 35 65 NW8 29.98R Southampton NOT AVBL Bridgehampton NOT AVBL East Hampton N/A 44 35 71 NW5 29.96S Montauk N/A 45 38 76 W8 29.97R $$ NYZ052-065-067-052200- HUDSON VALLEY CITY SKY/WX TMP DP RH WIND PRES REMARKS White Plains MOCLDY 46 31 55 NW10 29.97R Newburgh MOCLDY 43 36 75 W17 29.99 Montgomery CLOUDY 45 31 58 W9G18 29.97R Poughkeepsie MOCLDY 43 33 68 W8 29.97R Albany MOCLDY 41 30 65 W8 29.95R $$ NJZ001-105-106-008-010-013-015-019>022-104-052200- NEW JERSEY CITY SKY/WX TMP DP RH WIND PRES REMARKS Newark/Liberty MOCLDY 48 33 56 W9 30.00R Teterboro MOCLDY 49 32 52 W9 29.98R Caldwell PTCLDY 47 33 58 W6 30.00R Somerville CLEAR 47 32 56 VRB6 30.00R Linden N/A 47 33 57 NW10G16 30.01R Sussex CLOUDY 45 32 60 NW5 29.99R Andover N/A 43 36 76 SW3 29.99R Trenton CLEAR 46 33 60 NW8 30.02R Millville CLEAR 48 38 68 NW7 30.03R Atlantic City CLEAR 47 37 68 N7 30.02R Wrightstown PTCLDY 46 35 65 VRB5 30.00R Toms River CLOUDY 47 37 68 NW8 30.03R Belmar CLEAR N/A N/A N/A W7 30.02R $$ PAZ047>061-062-071-052200- EASTERN PENNSYLVANIA CITY SKY/WX TMP DP RH WIND PRES REMARKS Philadelphia PTCLDY 49 33 54 N9 30.04R Allentown MOCLDY 47 33 58 W6 30.01R Scranton CLOUDY 45 31 58 NW6 29.99R $$ CTZ002-004>006-009-010-012-RIZ004-006-007-MAZ004-011-015-052200- SOUTHERN NEW ENGLAND IN CT CITY SKY/WX TMP DP RH WIND PRES REMARKS Bradley INTL MOCLDY 41 33 73 CALM 29.97R Hartford PTCLDY 44 34 67 NW5 29.97R Danbury MOCLDY 44 31 60 W8 29.98R Wtrbury/Oxford MOCLDY 43 30 61 NW6G17 29.97R Bridgeport PTCLDY 49 30 48 NW10 29.97R Meriden CLEAR 46 33 60 NW8 29.97R New Haven PTCLDY 46 33 60 NW6 29.97R Chester N/A 45 34 65 NW9 29.95R Groton CLEAR 47 37 68 NW9G20 29.95R Wilimantic CLEAR 43 35 73 W6 29.96R IN RI CITY SKY/WX TMP DP RH WIND PRES REMARKS Providence PTCLDY 41 34 76 NW7 29.94R Block Island CLEAR 44 37 76 W10 29.96R Westerly CLEAR 45 34 65 CALM 29.96R IN MA CITY SKY/WX TMP DP RH WIND PRES REMARKS Boston PTCLDY 38 34 85 W9G21 29.93F WCI 31 Worcester CLEAR 34 30 85 W13 29.89S WCI 25 Westfield CLOUDY 36 34 92 W3 29.96R Provincetown CLOUDY 43 39 86 W15 29.92R Nantucket CLOUDY 46 43 89 NW12 29.91R $$ ANZ330-335-338-340-345-350-353-355-052200- COASTAL MARINE OBSERVATIONS STATION/POSITION TIME SKY/WX TEMP WIND PRES VSBY WAVE AIR SEA DIR/SP/G HT/PER (UTC) (F) (DEG/KT/KT) (MB) (MI) (FT/S) NY HARB ENTRANCE 1950 48 53 290/ 17/ 21 1014.7 3/ 4 20 S FIRE ISLAND 1950 49 54 310/ 17/ 21 1014.2 3/ 5 GREAT SOUTH BAY 2030 47 44 N/A 23 SSW MONTAUK P 2050 47 54 300/ 17/ 21 1014.7 4/ 5 15 E BARNEGAT LI 2030 54 N/A 2/ 5 HUDSON CANYON 1950 51 58 1014.4 3/ 5 KINGS POINT 2048 48 48 1015.1 EXECUTION ROCKS 2045 50 290/ 12/ 16 N/A CENTRAL LI SOUND NOT AVBL EASTERN LI SOUND NOT AVBL ROBBINS REEF 2048 48 300/ 14/ 16 1015.8 $$ >>>>>>>>>>>>>>>>>>>>>>>>>>>> KEY <<<<<<<<<<<<<<<<<<<<<<<<<<< > < > SKY/WX - Sky Condition/Present Weather < > TMP - Temperature in Fahrenheit < > DP - Dew Point in Fahrenheit < > RH - Relative Humidity in Percent < > WIND - Direction (from) and Speed in MPH < > PRES - Mean Sea Level Pressure (inches of Hg) < > WCI - Wind Chill Index < > VSB - VISIBILITY IN MILES < > HX - HEAT INDEX < > TC - TEMPERATURE IN CELSIUS < > VRB - VARIABLE WIND DIRECTION < > < >>>>>>>>>>>>>>>>>>>>>>>>>>>> KEY <<<<<<<<<<<<<<<<<<<<<<<<<<<

USA.gov is the U.S. government's official web portal to all federal, state and local government web resources and services.